Location: La Comballaz
(46.3780°N, 7.0817°E)
Time: 05:48:57
(UTC+00:00)

X-37B - Pass Details

Date: 10 December 2021
Orbit: 334 x 337 km, 45.0° (Epoch: 11 January)

Event Time Altitude Azimuth Distance (km) Brightness Sun altitude
Rises 18:13:50 0° 262° (W) 2,103 5.7 -24.7°
Reaches altitude 10° 18:15:50 10° 260° (W) 1,266 4.2 -25.0°
Enters shadow 18:16:46 19° 257° (WSW) 890 3.2 -25.2°
